DW8542 Weather Reports


Display with metric or nautical units.
time (UTC)temp
F
wind
direction
speed
MPH
gust
MPH
rain 1hr
in
rain 24hr
in
rain mn
in
humidity
%
barometer
mb
20260508110048 42 0.0 0.0 0.00 0.00 0.00 83 1004.4
20260508104555 40 0.0 0.0 0.00 0.00 0.00 86 1004.4
20260508103048 38 0.0 0.0 0.00 0.00 0.00 88 1004.3
20260508101549 36 0.0 0.0 0.00 0.00 0.00 87 1004.3
20260508100045 36 0.0 0.0 0.00 0.00 0.00 86 1004.2
20260508094543 36 0.0 0.0 0.00 0.00 0.00 85 1004.1
20260508093041 36 0.0 0.0 0.00 0.00 0.00 83 1004.1
20260508091539 37 0.0 0.0 0.00 0.00 0.00 82 1004.1
20260508090044 38 0.0 0.0 0.00 0.00 0.00 80 1003.9
20260508084534 38 0.0 0.0 0.00 0.01 0.00 79 1003.8
20260508083038 38 0.0 0.0 0.00 0.01 0.00 79 1003.7
20260508081531 39 0.0 0.0 0.00 0.01 0.00 78 1003.6
20260508080035 39 0.0 0.0 0.00 0.01 0.00 78 1003.6
20260508074528 39 0.0 0.0 0.00 0.18 0.00 77 1003.5
20260508073026 40 0.0 0.0 0.00 0.18 0.00 76 1003.5
20260508071524 40 0.0 0.0 0.00 0.18 0.00 76 1003.6
20260508070022 40 0.0 0.0 0.00 0.18 0.00 75 1003.6
20260508064545 42 0.0 0.0 0.00 0.23 0.00 72 1003.5
20260508063026 42 0.0 0.0 0.00 0.23 0.00 71 1003.6
20260508061517 42 0.0 0.0 0.00 0.23 0.00 70 1003.5
20260508060015 41 0.0 0.0 0.00 0.23 0.00 72 1003.7
20260508054519 41 0.0 0.0 0.00 0.25 0.00 73 1003.8
20260508053010 41 0.0 0.0 0.00 0.25 0.00 76 1004.1
20260508051516 41 0.0 0.0 0.00 0.25 0.00 75 1004.2
20260508050015 41 0.0 0.0 0.00 0.25 0.00 75 1004.3
20260508044506 42 0.0 0.0 0.00 0.30 0.00 75 1004.4
20260508043010 41 0.0 0.0 0.00 0.30 0.00 78 1004.7
20260508041600 42 0.0 0.0 0.00 0.30 0.00 76 1004.5
20260508040105 43 0.0 0.0 0.00 0.30 0.00 76 1004.5
20260508034556 43 0.0 0.0 0.00 0.38 0.30 77 1004.5
20260508033054 44 0.0 0.0 0.00 0.38 0.30 76 1004.4
20260508031601 45 0.0 0.0 0.00 0.38 0.30 76 1004.4
20260508030052 46 0.0 0.0 0.00 0.38 0.30 75 1004.3
20260508024545 47 0.0 0.0 0.00 0.46 0.30 77 1004.4
20260508023045 48 0.0 0.0 0.00 0.46 0.30 80 1004.4
20260508021544 49 0.0 0.0 0.00 0.46 0.30 83 1004.5
20260508020045 49 0.0 0.0 0.00 0.46 0.30 82 1004.5
20260508014543 50 0.0 0.0 0.00 0.46 0.30 79 1004.5
20260508013043 50 0.0 0.0 0.00 0.46 0.30 77 1004.3
20260508011549 50 0.0 0.0 0.00 0.46 0.30 81 1004.3
20260508010043 51 0.0 0.0 0.00 0.46 0.30 78 1004.1
20260508004542 52 0.0 0.0 0.00 0.46 0.30 79 1004.0
20260508003041 52 0.0 0.0 0.00 0.46 0.30 81 1003.6
20260508001540 52 0.0 0.0 0.00 0.46 0.30 82 1003.3
20260508000053 52 0.0 0.0 0.00 0.46 0.30 82 1003.2
20260507234545 53 0.0 0.0 0.00 0.46 0.30 79 1003.2
20260507233038 53 0.0 0.0 0.00 0.46 0.30 76 1002.9
20260507231544 54 0.0 0.0 0.00 0.46 0.30 75 1002.7
20260507230038 54 0.0 0.0 0.00 0.46 0.30 74 1002.4
20260507224537 56 0.0 0.0 0.00 0.46 0.30 68 1002.2
20260507223036 57 0.0 0.0 0.00 0.46 0.30 65 1001.9
20260507221535 57 0.0 0.0 0.00 0.46 0.30 73 1001.7
20260507220034 58 0.0 0.0 0.00 0.46 0.30 69 1001.5
20260507214534 58 0.0 0.0 0.00 0.46 0.30 68 1001.6
20260507213040 59 0.0 0.0 0.00 0.46 0.30 67 1001.5
20260507211545 60 0.0 0.0 0.00 0.46 0.30 65 1001.4
20260507210034 62 0.0 0.0 0.00 0.46 0.30 47 1001.3
20260507204532 64 0.0 0.0 0.00 0.46 0.30 47 1001.2
20260507203035 64 0.0 0.0 0.00 0.46 0.30 43 1001.1
20260507201531 63 0.0 0.0 0.00 0.46 0.30 45 1001.0
20260507200031 64 0.0 0.0 0.00 0.46 0.30 46 1001.0
20260507194529 64 0.0 0.0 0.00 0.46 0.30 48 1001.0
20260507193027 63 0.0 0.0 0.00 0.46 0.30 44 1001.2
20260507191527 63 0.0 0.0 0.00 0.46 0.30 46 1001.3
20260507190025 63 0.0 0.0 0.00 0.46 0.30 48 1001.5
20260507184521 63 0.0 0.0 0.00 0.46 0.30 46 1001.6
20260507183020 61 0.0 0.0 0.00 0.46 0.30 49 1001.7
20260507181519 61 0.0 0.0 0.00 0.46 0.30 52 1002.0
20260507180018 63 0.0 0.0 0.00 0.46 0.30 48 1001.9
20260507174537 63 0.0 0.0 0.00 0.46 0.30 51 1001.8
20260507173017 61 0.0 0.0 0.00 0.46 0.30 54 1001.9
20260507171511 61 0.0 0.0 0.00 0.46 0.30 56 1002.2
20260507170011 61 0.0 0.0 0.00 0.46 0.30 61 1002.2
20260507164509 60 0.0 0.0 0.00 0.46 0.30 58 1002.3
20260507163007 60 0.0 0.0 0.00 0.46 0.30 63 1002.4
20260507161504 59 0.0 0.0 0.00 0.46 0.30 67 1002.7
20260507160007 59 0.0 0.0 0.00 0.46 0.30 65 1003.1
20260507154501 58 0.0 0.0 0.00 0.46 0.30 68 1003.2
20260507153058 58 0.0 0.0 0.00 0.46 0.30 70 1003.1
20260507151600 56 0.0 0.0 0.00 0.46 0.30 71 1003.3
20260507150053 56 0.0 0.0 0.00 0.46 0.30 74 1003.4
20260507144551 55 0.0 0.0 0.00 0.46 0.30 82 1003.7
20260507143052 53 0.0 0.0 0.00 0.46 0.30 82 1004.0
20260507141548 53 0.0 0.0 0.00 0.46 0.30 86 1003.9
20260507140052 53 0.0 0.0 0.00 0.46 0.30 87 1004.4
20260507134543 51 0.0 0.0 0.00 0.46 0.30 91 1004.1
20260507133043 48 0.0 0.0 0.00 0.46 0.30 92 1004.2
20260507131609 48 0.0 0.0 0.00 0.46 0.30 93 1004.3
20260507130041 48 0.0 0.0 0.00 0.46 0.30 94 1004.1
20260507124550 48 0.0 0.0 0.00 0.46 0.30 94 1003.8
20260507123045 48 0.0 0.0 0.00 0.46 0.30 94 1004.3
20260507121541 48 0.0 0.0 0.00 0.46 0.30 94 1003.9
20260507120042 48 0.0 0.0 0.00 0.46 0.30 94 1004.6
20260507114539 48 0.0 0.0 0.00 0.46 0.30 94 1004.7
20260507113102 48 0.0 0.0 0.00 0.46 0.30 94 1004.6
20260507111534 48 0.0 0.0 0.00 0.46 0.30 94 1003.8